WLF1403 LGAV-HECA

Flight info

Callsign WLF1403
Flight time 1h 24m
Altitude 37000
Route KEA UN132 KUPIS DCT LAPSO UN132 KUMBI L612 BLT A16 CVO
Aircraft B77L/H-SDE1E2E3FGHIJ2J3J4J5M1RWXY/LB1D1

Departure

Time 2026-05-07 16:08
Airport Athens Eleftherios Venizelos International Airport (LGAV)

Arrival

Time 2026-05-07 17:32
Airport Cairo International Airport (HECA)
Time Latitude Longitude Altitude Speed Heading
2026-05-07 15:33 37.92691 23.93915 306 ft 0 kts 217°
2026-05-07 15:56 37.92694 23.93917 308 ft 3 kts 218°
2026-05-07 15:56 37.92712 23.93935 307 ft 1 kts 208°
2026-05-07 15:57 37.92734 23.93947 306 ft 4 kts 189°
2026-05-07 15:57 37.92759 23.93944 306 ft 4 kts 149°
2026-05-07 15:57 37.92774 23.93929 306 ft 0 kts 127°
2026-05-07 16:00 37.92762 23.93948 308 ft 8 kts 126°
2026-05-07 16:00 37.92700 23.94050 307 ft 21 kts 128°
2026-05-07 16:01 37.92661 23.94116 307 ft 8 kts 126°
2026-05-07 16:01 37.92669 23.94201 307 ft 14 kts 47°
2026-05-07 16:01 37.92769 23.94299 310 ft 21 kts 37°
2026-05-07 16:01 37.92903 23.94425 308 ft 26 kts 36°
2026-05-07 16:02 37.93060 23.94576 309 ft 30 kts 37°
2026-05-07 16:02 37.93238 23.94746 308 ft 31 kts 37°
2026-05-07 16:02 37.93403 23.94902 307 ft 30 kts 36°
2026-05-07 16:02 37.93573 23.95063 308 ft 30 kts 37°
2026-05-07 16:03 37.93737 23.95219 306 ft 30 kts 38°
2026-05-07 16:03 37.93903 23.95380 308 ft 30 kts 37°
2026-05-07 16:03 37.94071 23.95537 304 ft 30 kts 36°
2026-05-07 16:03 37.94236 23.95692 308 ft 29 kts 36°
2026-05-07 16:04 37.94359 23.95827 308 ft 15 kts 64°
2026-05-07 16:04 37.94374 23.95959 305 ft 16 kts 55°
2026-05-07 16:04 37.94465 23.96054 306 ft 19 kts 37°
2026-05-07 16:04 37.94583 23.96166 307 ft 25 kts 37°
2026-05-07 16:05 37.94750 23.96324 306 ft 32 kts 36°
2026-05-07 16:05 37.94922 23.96487 306 ft 30 kts 37°
2026-05-07 16:05 37.95091 23.96648 310 ft 31 kts 36°
2026-05-07 16:05 37.95277 23.96822 310 ft 33 kts 38°
2026-05-07 16:06 37.95377 23.96977 308 ft 19 kts 105°
2026-05-07 16:06 37.95265 23.97034 316 ft 18 kts 171°
2026-05-07 16:06 37.95178 23.97009 314 ft 0 kts 214°
2026-05-07 16:07 37.95080 23.96917 313 ft 49 kts 217°
2026-05-07 16:07 37.94595 23.96457 300 ft 122 kts 217°
2026-05-07 16:08 37.93754 23.95659 313 ft 174 kts 218°
2026-05-07 16:08 37.92799 23.94696 837 ft 178 kts 217°
2026-05-07 16:08 37.91780 23.93807 1534 ft 178 kts 207°
2026-05-07 16:08 37.90610 23.93330 2168 ft 180 kts 200°
2026-05-07 16:09 37.89428 23.92535 2421 ft 206 kts 211°
2026-05-07 16:09 37.88096 23.91576 2696 ft 232 kts 208°
2026-05-07 16:09 37.86642 23.90585 3298 ft 243 kts 208°
2026-05-07 16:09 37.85118 23.89553 4009 ft 252 kts 208°
2026-05-07 16:10 37.83535 23.88517 4712 ft 261 kts 202°
2026-05-07 16:10 37.81720 23.88289 5333 ft 271 kts 167°
2026-05-07 16:10 37.80075 23.89441 6165 ft 276 kts 135°
2026-05-07 16:10 37.78798 23.91254 6834 ft 282 kts 133°
2026-05-07 16:11 37.77457 23.93124 7512 ft 288 kts 133°
2026-05-07 16:11 37.76099 23.94998 8335 ft 291 kts 134°
2026-05-07 16:11 37.74727 23.96883 9182 ft 293 kts 134°
2026-05-07 16:11 37.73334 23.98798 9955 ft 298 kts 134°
2026-05-07 16:12 37.71910 24.00749 10557 ft 308 kts 134°
2026-05-07 16:12 37.70397 24.02821 10775 ft 335 kts 134°
2026-05-07 16:12 37.68757 24.05065 10988 ft 361 kts 134°
2026-05-07 16:12 37.67027 24.07427 11390 ft 379 kts 134°
2026-05-07 16:13 37.65210 24.09908 12065 ft 390 kts 134°
2026-05-07 16:13 37.63355 24.12438 12930 ft 396 kts 134°
2026-05-07 16:13 37.61447 24.15041 13858 ft 402 kts 134°
2026-05-07 16:13 37.59555 24.17620 14651 ft 409 kts 134°
2026-05-07 16:14 37.57608 24.20266 15442 ft 414 kts 135°
2026-05-07 16:14 37.55631 24.22949 16208 ft 421 kts 135°
2026-05-07 16:14 37.53622 24.25675 16993 ft 427 kts 135°
2026-05-07 16:14 37.51585 24.28436 17773 ft 433 kts 135°
2026-05-07 16:15 37.49517 24.31237 18511 ft 440 kts 135°
2026-05-07 16:15 37.47423 24.34071 19171 ft 445 kts 135°
2026-05-07 16:15 37.45304 24.36938 19902 ft 448 kts 135°
2026-05-07 16:15 37.43172 24.39818 20662 ft 451 kts 135°
2026-05-07 16:16 37.41028 24.42713 21409 ft 453 kts 134°
2026-05-07 16:16 37.38869 24.45624 22094 ft 457 kts 134°
2026-05-07 16:16 37.36687 24.48565 22733 ft 463 kts 134°
2026-05-07 16:16 37.34477 24.51541 23181 ft 470 kts 134°
2026-05-07 16:17 37.32233 24.54560 23128 ft 472 kts 134°
2026-05-07 16:17 37.29998 24.57564 23133 ft 468 kts 134°
2026-05-07 16:17 37.27781 24.60538 23129 ft 466 kts 134°
2026-05-07 16:17 37.25568 24.63508 23128 ft 466 kts 134°
2026-05-07 16:18 37.23347 24.66484 23130 ft 467 kts 134°
2026-05-07 16:18 37.21126 24.69457 23130 ft 467 kts 134°
2026-05-07 16:18 37.18900 24.72434 23148 ft 467 kts 134°
2026-05-07 16:18 37.16674 24.75410 23496 ft 470 kts 134°
2026-05-07 16:19 37.14423 24.78413 24063 ft 475 kts 134°
2026-05-07 16:19 37.12148 24.81445 24620 ft 479 kts 134°
2026-05-07 16:19 37.09856 24.84498 25142 ft 484 kts 134°
2026-05-07 16:19 37.07538 24.87583 25628 ft 489 kts 134°
2026-05-07 16:20 37.05194 24.90700 26125 ft 494 kts 134°
2026-05-07 16:20 37.02826 24.93845 26612 ft 499 kts 134°
2026-05-07 16:20 37.00433 24.97023 27087 ft 504 kts 135°
2026-05-07 16:20 36.98020 25.00225 27594 ft 509 kts 135°
2026-05-07 16:21 36.95579 25.03460 28051 ft 514 kts 135°
2026-05-07 16:21 36.93136 25.06695 28455 ft 520 kts 135°
2026-05-07 16:21 36.90623 25.09960 28898 ft 524 kts 137°
2026-05-07 16:21 36.87996 25.13145 29360 ft 528 kts 139°
2026-05-07 16:22 36.85306 25.16285 29817 ft 531 kts 140°
2026-05-07 16:22 36.82584 25.19438 30217 ft 535 kts 140°
2026-05-07 16:22 36.79853 25.22618 30610 ft 538 kts 140°
2026-05-07 16:22 36.77124 25.25824 30960 ft 541 kts 139°
2026-05-07 16:23 36.74390 25.29059 31316 ft 544 kts 139°
2026-05-07 16:23 36.71637 25.32316 31676 ft 547 kts 139°
2026-05-07 16:23 36.68874 25.35584 32211 ft 546 kts 139°
2026-05-07 16:23 36.66126 25.38827 32700 ft 546 kts 139°
2026-05-07 16:24 36.63362 25.42104 32984 ft 550 kts 138°
2026-05-07 16:24 36.60607 25.45435 33240 ft 554 kts 138°
2026-05-07 16:24 36.57854 25.48800 33591 ft 556 kts 137°
2026-05-07 16:24 36.55093 25.52182 33985 ft 558 kts 137°
2026-05-07 16:25 36.52321 25.55570 34303 ft 559 kts 137°
2026-05-07 16:25 36.49535 25.58962 34605 ft 561 kts 137°
2026-05-07 16:25 36.46742 25.62351 34876 ft 563 kts 137°
2026-05-07 16:25 36.44881 25.64604 35018 ft 566 kts 137°
2026-05-07 16:26 36.42056 25.68021 35096 ft 566 kts 137°
2026-05-07 16:26 36.36447 25.74794 35121 ft 558 kts 137°
2026-05-07 16:27 36.29979 25.82591 35133 ft 557 kts 137°
2026-05-07 16:27 36.25324 25.88189 35138 ft 556 kts 137°
2026-05-07 16:28 36.19785 25.94800 35141 ft 557 kts 138°
2026-05-07 16:28 36.14169 26.01395 35127 ft 557 kts 138°
2026-05-07 16:29 36.08544 26.07979 35132 ft 557 kts 138°
2026-05-07 16:29 36.02925 26.14577 35145 ft 557 kts 138°
2026-05-07 16:30 35.97277 26.21186 35136 ft 560 kts 138°
2026-05-07 16:30 35.91631 26.27793 35150 ft 562 kts 137°
2026-05-07 16:31 35.85958 26.34419 35126 ft 562 kts 137°
2026-05-07 16:31 35.80282 26.41029 35133 ft 561 kts 137°
2026-05-07 16:32 35.74610 26.47621 35140 ft 560 kts 137°
2026-05-07 16:32 35.68938 26.54196 35138 ft 559 kts 137°
2026-05-07 16:33 35.63290 26.60734 35147 ft 553 kts 137°
2026-05-07 16:33 35.57735 26.67152 35123 ft 545 kts 137°
2026-05-07 16:34 35.52195 26.73533 35106 ft 551 kts 137°
2026-05-07 16:34 35.46519 26.80055 35160 ft 566 kts 137°
2026-05-07 16:35 35.40736 26.86695 35158 ft 570 kts 137°
2026-05-07 16:35 35.35015 26.93254 35131 ft 555 kts 137°
2026-05-07 16:36 35.29401 26.99672 35161 ft 552 kts 137°
2026-05-07 16:36 35.23766 27.06099 35160 ft 555 kts 137°
2026-05-07 16:37 35.18109 27.12548 35157 ft 557 kts 137°
2026-05-07 16:37 35.12458 27.18967 35162 ft 558 kts 137°
2026-05-07 16:38 35.06769 27.25420 35133 ft 557 kts 137°
2026-05-07 16:38 35.01099 27.31835 35138 ft 554 kts 137°
2026-05-07 16:39 34.95449 27.38193 35137 ft 551 kts 137°
2026-05-07 16:39 34.89815 27.44527 35148 ft 551 kts 137°
2026-05-07 16:40 34.84175 27.50862 35170 ft 552 kts 137°
2026-05-07 16:40 34.78541 27.57180 35139 ft 550 kts 137°
2026-05-07 16:41 34.72925 27.63464 35142 ft 547 kts 137°
2026-05-07 16:41 34.67331 27.69707 35141 ft 545 kts 137°
2026-05-07 16:42 34.61753 27.75921 35139 ft 543 kts 137°
2026-05-07 16:42 34.56134 27.82174 35162 ft 555 kts 137°
2026-05-07 16:43 34.50394 27.88546 35156 ft 561 kts 137°
2026-05-07 16:43 34.44638 27.94921 35149 ft 561 kts 137°
2026-05-07 16:44 34.38878 28.01290 35151 ft 560 kts 137°
2026-05-07 16:44 34.33135 28.07625 35168 ft 557 kts 137°
2026-05-07 16:45 34.27494 28.13839 35131 ft 543 kts 137°
2026-05-07 16:45 34.21884 28.20007 35161 ft 548 kts 137°
2026-05-07 16:46 34.16218 28.26226 35166 ft 553 kts 137°
2026-05-07 16:46 34.10507 28.32480 35162 ft 555 kts 137°
2026-05-07 16:47 34.04779 28.38740 35174 ft 553 kts 137°
2026-05-07 16:47 33.99138 28.44897 35143 ft 541 kts 138°
2026-05-07 16:48 33.93539 28.50992 35159 ft 545 kts 137°
2026-05-07 16:48 33.87887 28.57137 35164 ft 550 kts 137°
2026-05-07 16:49 33.82220 28.63288 35168 ft 553 kts 137°
2026-05-07 16:49 33.76498 28.69485 35169 ft 551 kts 137°
2026-05-07 16:50 33.70855 28.75589 35147 ft 542 kts 137°
2026-05-07 16:50 33.65322 28.81738 35131 ft 542 kts 136°
2026-05-07 16:51 33.59813 28.87967 35157 ft 545 kts 136°
2026-05-07 16:51 33.54271 28.94205 35165 ft 548 kts 136°
2026-05-07 16:52 33.48681 29.00463 35168 ft 551 kts 136°
2026-05-07 16:52 33.43063 29.06729 35158 ft 552 kts 136°
2026-05-07 16:53 33.37445 29.12982 35161 ft 551 kts 136°
2026-05-07 16:53 33.31830 29.19221 35147 ft 550 kts 135°
2026-05-07 16:54 33.26226 29.25437 35163 ft 549 kts 135°
2026-05-07 16:54 33.20637 29.31627 35156 ft 547 kts 135°
2026-05-07 16:55 33.15099 29.37748 35158 ft 545 kts 135°
2026-05-07 16:55 33.09548 29.43875 35150 ft 543 kts 135°
2026-05-07 16:56 33.04007 29.49980 35155 ft 542 kts 135°
2026-05-07 16:56 32.95702 29.59108 35156 ft 540 kts 136°
2026-05-07 16:57 32.90184 29.65159 35149 ft 539 kts 136°
2026-05-07 16:57 32.84668 29.71195 35147 ft 538 kts 136°
2026-05-07 16:58 32.79163 29.77211 35147 ft 537 kts 136°
2026-05-07 16:58 32.73661 29.83213 35154 ft 537 kts 136°
2026-05-07 16:59 32.68169 29.89192 35117 ft 535 kts 136°
2026-05-07 16:59 32.62694 29.95145 35142 ft 533 kts 136°
2026-05-07 17:00 32.57223 30.01082 35139 ft 533 kts 136°
2026-05-07 17:00 32.51757 30.07007 35141 ft 532 kts 136°
2026-05-07 17:01 32.46285 30.12924 35144 ft 532 kts 136°
2026-05-07 17:01 32.40848 30.18783 35123 ft 532 kts 136°
2026-05-07 17:02 32.35379 30.24667 35127 ft 531 kts 136°
2026-05-07 17:02 32.29912 30.30546 35132 ft 531 kts 136°
2026-05-07 17:03 32.24444 30.36417 35133 ft 531 kts 136°
2026-05-07 17:03 32.18977 30.42273 35144 ft 531 kts 136°
2026-05-07 17:04 32.13507 30.48124 35137 ft 530 kts 136°
2026-05-07 17:04 32.08050 30.53948 35127 ft 529 kts 136°
2026-05-07 17:05 32.02601 30.59757 35131 ft 527 kts 136°
2026-05-07 17:05 31.97165 30.65542 35134 ft 526 kts 136°
2026-05-07 17:06 31.91781 30.71261 35037 ft 513 kts 136°
2026-05-07 17:06 31.89143 30.74060 34628 ft 509 kts 137°
2026-05-07 17:06 31.86525 30.76836 34206 ft 505 kts 137°
2026-05-07 17:07 31.83927 30.79588 33738 ft 500 kts 137°
2026-05-07 17:07 31.81353 30.82312 33253 ft 496 kts 137°
2026-05-07 17:07 31.78801 30.85012 32804 ft 491 kts 137°
2026-05-07 17:07 31.76269 30.87688 32363 ft 487 kts 137°
2026-05-07 17:08 31.73761 30.90337 31926 ft 482 kts 137°
2026-05-07 17:08 31.71277 30.92957 31487 ft 478 kts 137°
2026-05-07 17:08 31.68815 30.95555 31047 ft 474 kts 137°
2026-05-07 17:08 31.66368 30.98135 30615 ft 470 kts 137°
2026-05-07 17:09 31.63946 31.00686 30172 ft 467 kts 137°
2026-05-07 17:09 31.61541 31.03217 29661 ft 463 kts 137°
2026-05-07 17:09 31.59156 31.05732 29170 ft 459 kts 137°
2026-05-07 17:09 31.56788 31.08218 28739 ft 454 kts 137°
2026-05-07 17:10 31.54306 31.10460 28230 ft 450 kts 149°
2026-05-07 17:10 31.51523 31.12103 27793 ft 446 kts 159°
2026-05-07 17:10 31.48592 31.13203 27349 ft 440 kts 170°
2026-05-07 17:10 31.45591 31.13778 26931 ft 435 kts 174°
2026-05-07 17:11 31.42606 31.14275 26502 ft 432 kts 174°
2026-05-07 17:11 31.39639 31.14775 26078 ft 429 kts 174°
2026-05-07 17:11 31.36695 31.15292 25669 ft 426 kts 173°
2026-05-07 17:11 31.33776 31.15821 25329 ft 422 kts 173°
2026-05-07 17:12 31.31861 31.16172 25071 ft 420 kts 173°
2026-05-07 17:12 31.28984 31.16702 24673 ft 417 kts 173°
2026-05-07 17:12 31.26129 31.17226 24268 ft 415 kts 173°
2026-05-07 17:12 31.22355 31.17923 23728 ft 413 kts 173°
2026-05-07 17:13 31.19527 31.18451 23249 ft 411 kts 173°
2026-05-07 17:13 31.17625 31.18808 22960 ft 409 kts 173°
2026-05-07 17:13 31.14817 31.19334 22514 ft 406 kts 173°
2026-05-07 17:13 31.12068 31.19848 22119 ft 404 kts 173°
2026-05-07 17:14 31.09304 31.20367 21730 ft 401 kts 173°
2026-05-07 17:14 31.06555 31.20880 21326 ft 399 kts 173°
2026-05-07 17:14 31.03819 31.21391 20935 ft 396 kts 173°
2026-05-07 17:14 31.01107 31.21895 20544 ft 394 kts 173°
2026-05-07 17:15 30.98405 31.22398 20145 ft 392 kts 173°
2026-05-07 17:15 30.95709 31.22899 19743 ft 391 kts 173°
2026-05-07 17:15 30.93027 31.23398 19359 ft 390 kts 172°
2026-05-07 17:15 30.90350 31.23897 18962 ft 389 kts 172°
2026-05-07 17:16 30.87677 31.24396 18555 ft 389 kts 172°
2026-05-07 17:16 30.85011 31.24890 18108 ft 388 kts 172°
2026-05-07 17:16 30.82349 31.25384 17674 ft 387 kts 172°
2026-05-07 17:16 30.79701 31.25875 17266 ft 385 kts 172°
2026-05-07 17:17 30.77064 31.26365 16864 ft 383 kts 172°
2026-05-07 17:17 30.74439 31.26852 16458 ft 381 kts 172°
2026-05-07 17:17 30.71823 31.27336 16070 ft 380 kts 172°
2026-05-07 17:17 30.69219 31.27819 15672 ft 379 kts 172°
2026-05-07 17:18 30.66653 31.28295 15279 ft 377 kts 172°
2026-05-07 17:18 30.64065 31.28774 14888 ft 377 kts 172°
2026-05-07 17:18 30.61487 31.29250 14500 ft 375 kts 172°
2026-05-07 17:18 30.58910 31.29727 14111 ft 375 kts 172°
2026-05-07 17:19 30.56336 31.30203 13696 ft 374 kts 172°
2026-05-07 17:19 30.53764 31.30678 13265 ft 373 kts 172°
2026-05-07 17:19 30.51202 31.31150 12857 ft 372 kts 172°
2026-05-07 17:19 30.48650 31.31622 12458 ft 371 kts 172°
2026-05-07 17:20 30.46109 31.32090 12078 ft 369 kts 172°
2026-05-07 17:20 30.43577 31.32553 11686 ft 368 kts 172°
2026-05-07 17:20 30.41054 31.33012 11314 ft 366 kts 172°
2026-05-07 17:20 30.38546 31.33468 10926 ft 362 kts 172°
2026-05-07 17:21 30.36069 31.33918 10543 ft 358 kts 172°
2026-05-07 17:21 30.33641 31.34359 10343 ft 347 kts 172°
2026-05-07 17:21 30.31294 31.34788 10179 ft 336 kts 172°
2026-05-07 17:21 30.29024 31.35201 10036 ft 325 kts 171°
2026-05-07 17:22 30.26817 31.35603 9816 ft 316 kts 172°
2026-05-07 17:22 30.24679 31.35992 9488 ft 307 kts 171°
2026-05-07 17:22 30.22606 31.36369 9098 ft 295 kts 171°
2026-05-07 17:22 30.20624 31.36729 8775 ft 283 kts 171°
2026-05-07 17:23 30.18682 31.37080 8482 ft 285 kts 171°
2026-05-07 17:23 30.16683 31.37443 8219 ft 295 kts 171°
2026-05-07 17:23 30.14641 31.37813 7896 ft 297 kts 171°
2026-05-07 17:23 30.12604 31.38183 7567 ft 295 kts 171°
2026-05-07 17:24 30.10607 31.38285 7224 ft 283 kts 193°
2026-05-07 17:24 30.08874 31.37367 6949 ft 270 kts 222°
2026-05-07 17:24 30.07689 31.35783 6648 ft 254 kts 244°
2026-05-07 17:24 30.06861 31.34029 6413 ft 245 kts 245°
2026-05-07 17:25 30.06032 31.32309 6118 ft 246 kts 245°
2026-05-07 17:25 30.05209 31.30593 5817 ft 242 kts 244°
2026-05-07 17:25 30.04410 31.28949 5538 ft 235 kts 244°
2026-05-07 17:25 30.03619 31.27320 5283 ft 230 kts 245°
2026-05-07 17:26 30.02847 31.25737 5016 ft 224 kts 245°
2026-05-07 17:26 30.02094 31.24190 4757 ft 218 kts 244°
2026-05-07 17:26 30.01217 31.22815 4456 ft 213 kts 217°
2026-05-07 17:26 29.99830 31.22383 4331 ft 210 kts 169°
2026-05-07 17:27 29.98512 31.23024 4278 ft 207 kts 132°
2026-05-07 17:27 29.97801 31.24384 4159 ft 195 kts 95°
2026-05-07 17:27 29.97881 31.25883 3925 ft 184 kts 65°
2026-05-07 17:27 29.98536 31.27089 3718 ft 174 kts 46°
2026-05-07 17:28 29.99332 31.28108 3528 ft 165 kts 46°
2026-05-07 17:28 30.00093 31.29087 3291 ft 160 kts 46°
2026-05-07 17:28 30.00798 31.30021 3082 ft 148 kts 46°
2026-05-07 17:28 30.01462 31.30905 2902 ft 148 kts 46°
2026-05-07 17:29 30.02148 31.31810 2728 ft 151 kts 47°
2026-05-07 17:29 30.02825 31.32714 2515 ft 146 kts 49°
2026-05-07 17:29 30.03489 31.33605 2317 ft 147 kts 48°
2026-05-07 17:29 30.04157 31.34493 2149 ft 149 kts 49°
2026-05-07 17:30 30.04836 31.35394 1922 ft 144 kts 47°
2026-05-07 17:30 30.05485 31.36245 1679 ft 140 kts 46°
2026-05-07 17:30 30.06101 31.37075 1516 ft 134 kts 49°
2026-05-07 17:30 30.06688 31.37904 1353 ft 132 kts 47°
2026-05-07 17:31 30.07294 31.38706 1216 ft 133 kts 46°
2026-05-07 17:31 30.07913 31.39539 1018 ft 139 kts 46°
2026-05-07 17:31 30.08527 31.40367 808 ft 133 kts 45°
2026-05-07 17:31 30.09134 31.41157 596 ft 131 kts 44°
2026-05-07 17:32 30.09744 31.41958 453 ft 136 kts 45°
2026-05-07 17:32 30.10363 31.42766 379 ft 126 kts 46°
2026-05-07 17:32 30.10828 31.43383 379 ft 75 kts 49°
2026-05-07 17:32 30.11057 31.43692 379 ft 37 kts 49°
2026-05-07 17:33 30.11232 31.43910 379 ft 37 kts 38°
2026-05-07 17:33 30.11462 31.44046 379 ft 32 kts 24°
2026-05-07 17:33 30.11597 31.44099 379 ft 14 kts
2026-05-07 17:33 30.11653 31.44031 379 ft 14 kts 257°
2026-05-07 17:34 30.11593 31.43945 379 ft 14 kts 223°
2026-05-07 17:34 30.11519 31.43849 379 ft 18 kts 230°
2026-05-07 17:34 30.11413 31.43712 379 ft 28 kts 227°
2026-05-07 17:34 30.11276 31.43525 379 ft 28 kts 233°
2026-05-07 17:35 30.11307 31.43359 379 ft 24 kts 320°
2026-05-07 17:35 30.11435 31.43234 379 ft 24 kts 319°
2026-05-07 17:35 30.11563 31.43105 379 ft 24 kts 320°
2026-05-07 17:35 30.11695 31.42977 379 ft 24 kts 320°
2026-05-07 17:36 30.11822 31.42850 379 ft 25 kts 319°
2026-05-07 17:36 30.11958 31.42714 379 ft 27 kts 320°
2026-05-07 17:36 30.12107 31.42566 379 ft 29 kts 319°
2026-05-07 17:36 30.12200 31.42411 379 ft 22 kts 254°
2026-05-07 17:37 30.12095 31.42265 379 ft 26 kts 227°
2026-05-07 17:37 30.11968 31.42095 379 ft 30 kts 231°
2026-05-07 17:37 30.11825 31.41903 379 ft 33 kts 227°
2026-05-07 17:37 30.11668 31.41687 379 ft 37 kts 230°
2026-05-07 17:38 30.11502 31.41467 379 ft 37 kts 228°
2026-05-07 17:38 30.11411 31.41287 379 ft 20 kts 291°
2026-05-07 17:38 30.11539 31.41220 379 ft 22 kts 344°
2026-05-07 17:38 30.11692 31.41165 379 ft 24 kts 342°
2026-05-07 17:39 30.11834 31.41111 379 ft 10 kts 341°
2026-05-07 17:39 30.11895 31.41066 379 ft 12 kts 281°
2026-05-07 17:39 30.11878 31.40988 379 ft 10 kts 251°
2026-05-07 17:39 30.11867 31.40949 379 ft 4 kts 251°
2026-05-07 17:40 30.11862 31.40931 379 ft 0 kts 252°